Home   Weather   Grand Rapids   Past weeks

Flag for USA Past Weather in Grand Rapids, Michigan, USA — Yesterday and Last 2 Weeks

Now
33 °F

Overcast.


Feels Like: 28 °F
Forecast: 31 / 36 °F
Wind: 6 mph from Southeast

Location: Kent County International Airport

Current Time: Dec 4, 2016 at 7:21:55 am

Latest Report: Dec 4, 2016 at 6:53 am


Visibility: 8 mi

Pressure: 30.22 "Hg

Humidity: 78%

Dew Point: 27 °F

Location of Grand RapidsLocation

Past Weather in Grand Rapids — Graph

°F

Grand Rapids Temperature Yesterday

Maximum temperature yesterday: 36 °F (at 12:53 am)
Minimum temperature yesterday: 34 °F (at 4:53 am)
Average temperature yesterday: 35 °F

High & Low Weather Summary for the Past Weeks

 TemperatureHumidityPressure
High57 °F (Nov 29, 2:53 pm)97% (Nov 24, 2:53 am)30.39 "Hg (Nov 24, 2:53 am)
Low21 °F (Nov 22, 5:53 am)47% (Nov 29, 2:53 pm)29.23 "Hg (Nov 28, 10:53 pm)
Average38 °F77%30.04 "Hg
* Reported Nov 19 5:01 am — Dec 4 5:53 am, Grand Rapids, Weather by CustomWeather, © 2016

Note: Actual official high and low records may vary slightly from our data, if they occured in-between our weather recording intervals... More about our weather records

Advertising

Grand Rapids Weather History for the Previous 24 Hours

Scroll right to see more
 ConditionsComfort  
Time TempWeatherWind HumidityBarometerVisibility
5:53 am
Sun, Dec 4
33 °FOvercast.6 mph78%30.23 "Hg8 mi
4:53 am34 °FOvercast.5 mph76%30.26 "Hg8 mi
3:53 am34 °FOvercast.5 mph76%30.27 "Hg10 mi
3:01 am34 °FOvercast.5 mph76%30.25 "Hg10 mi
1:53 am34 °FOvercast.5 mph79%30.29 "Hg10 mi
12:53 am34 °FOvercast.3 mph79%30.28 "Hg10 mi
11:53 pm
Sat, Dec 3
34 °FOvercast.6 mph79%30.30 "Hg10 mi
10:53 pm34 °FOvercast.3 mph76%30.29 "Hg10 mi
9:53 pm35 °FOvercast.3 mph72%30.30 "Hg10 mi
8:53 pm35 °FOvercast.6 mph72%30.31 "Hg10 mi
7:53 pm35 °FOvercast.5 mph72%30.31 "Hg10 mi
6:53 pm35 °FOvercast.7 mph72%30.31 "Hg10 mi
5:53 pm36 °FOvercast.7 mph70%30.31 "Hg10 mi
4:53 pm36 °FOvercast.7 mph70%30.33 "Hg10 mi
3:53 pm36 °FOvercast.8 mph70%30.32 "Hg10 mi
2:53 pm36 °FOvercast.5 mph73%30.32 "Hg10 mi
1:53 pm36 °FOvercast.7 mph73%30.31 "Hg9 mi
12:53 pm36 °FOvercast.No wind75%30.30 "Hg10 mi
11:53 am36 °FLight snow. Overcast.3 mph75%30.32 "Hg9 mi
10:53 am36 °FOvercast.3 mph75%30.33 "Hg10 mi
9:53 am35 °FLight snow. Overcast.5 mph78%30.34 "Hg9 mi
8:53 am36 °FOvercast.6 mph73%30.34 "Hg10 mi
7:53 am35 °FOvercast.6 mph75%30.33 "Hg10 mi
Weather by CustomWeather, © 2016

See weather overviewHow to use our weather pages